STARLINK-4087 (53156 NORAD) Tracking and Keplerian Element Data

This shows tracking and keplerian element data for the satellite.

Feedback or suggestion? Click here.




ElementValue
Catalog53156
NameSTARLINK-4087
Epoch Orbit1185
Epoch Day270.25001157
Epoch Year2022
RAAN58.0914
Inclination53.2173
Eccentricity0.000119
Argument of Perigee69.2684
Mean Anonmoly304.1457
Mean Motion15.17881786
Decay Rate-0.01072022
L11 53156U 22083AA 22270.25001157 -.01072022 00000+0 -56389-1 0 9996
L22 53156 53.2173 58.0914 0001190 69.2684 304.1457 15.17881786 11857

Live tracking and technical data element details for STARLINK-4087 (NORAD 53156). STARLINK-4087 can be tracked NOW for your location showing map with azimuth and elevation plus other details from your city location.

Track the satellite on the map from your city or location and see movement details for azimuth, elevation, latitude, longitude, range, height, and movement on the map or in text.







IsCatalogInMostPopularTable: catalog: 53156, numindb: 7
Update: records affected: 1



GetName: 53156 STARLINK-4087

Hit Count: updated at: Fri, 30 Sep 2022 03:11:18 GMT